Content
SEND FEEDBACK

Daily
Averages
Monthly
Summary
Australia

BELMONT, QUEENSLAND


Home > Oceania > Australia > Queensland
Elevation: 124 feet     Latitude: 27 28S     Longitude: 153 01E

WEATHER
 
SELECT A DAY
Number of Records: 293,014;   Date Range: 7/1/96 - 8/31/14
 
SHARE

PRINT THIS DATA

[ ← Previous Day ]
WEATHER ALMANAC - FEBRUARY 5, 2013
[ Next Day → ]
[ °C ]   °F
Weather ElementAverageHighLow
Temperature72.3 °F80.6 °F (12:00 pm)64.4 °F (4:00 am)
Dewpoint61.7 °F66.2 °F (6:30 pm)59 °F (12:00 am)
Humidity69.1 %94 % (10:30 pm)41 % (9:00 am)
Barometer30.07 in30.12 in (9:00 pm)30.04 in (1:30 pm)
Wind Speed10.2 mph17.3 mph (5:30 pm)
Wind Gust24.2 mph (9:00 am)
Weather ElementAverage
Visibility6.7 mi
Wind DirectionSSE (169.9 °)

Weather ElementTotal
Precipitation---
Cooling Degree Days7.5 (Base 65)
Growing Degree Days22.5 (Base 50)
Averaged from 67 records on February 5, 2013
WEATHER CONDITIONS BREAKOUT
WIND DIRECTION BREAKOUT
WEATHER BY HOUR - FEBRUARY 5, 2013
[ °C ]   °F
Local TimeTemperatureDewpointHumidityBarometerVisibilityWind DirectionWind SpeedGust SpeedPrecipitationEventsConditions
12:00 AM71.6 °F59.0 °F64 %30.09 inSouth (180°)9.2 mphClear
12:30 AM71.6 °F59.0 °F64 %30.06 in6.2 miSouth (190°)9.2 mphPartly Cloudy
1:00 AM71.0 °F59.0 °F56 %30.08 inSouth (190°)9.2 mph
1:00 AM71.6 °F59.0 °F64 %30.06 in6.2 miSouth (190°)9.2 mphPartly Cloudy
1:30 AM69.8 °F59.0 °F68 %30.06 inSSW (200°)10.4 mphClear
2:00 AM69.8 °F59.0 °F68 %30.06 inSSW (200°)9.2 mphClear
2:30 AM69.8 °F60.8 °F73 %30.06 inSouth (190°)9.2 mphClear
3:00 AM69.8 °F60.8 °F73 %30.06 inSSW (200°)9.2 mphClear
3:00 AM69.0 °F60.0 °F65 %30.06 in19.0 miSSW (200°)9.2 mphPartly Cloudy
3:30 AM66.2 °F60.8 °F83 %30.06 inSSW (210°)9.2 mphClear
4:00 AM65.0 °F61.0 °F81 %30.06 inSSW (210°)8.1 mph
4:00 AM64.4 °F60.8 °F88 %30.06 in6.2 miSSW (210°)8.1 mphPartly Cloudy
4:30 AM64.4 °F60.8 °F88 %30.06 inSSW (210°)10.4 mphClear
5:00 AM66.2 °F60.8 °F83 %30.06 inSSW (200°)9.2 mphClear
5:30 AM66.2 °F60.8 °F83 %30.06 in6.2 miSSW (200°)10.4 mphPartly Cloudy
6:00 AM66.2 °F60.8 °F83 %30.06 in6.2 miSSW (210°)9.2 mphPartly Cloudy
6:00 AM66.0 °F61.0 °F78 %30.09 in16.0 miSSW (210°)9.2 mphScattered Clouds
6:30 AM68.0 °F60.8 °F78 %30.09 in6.2 miSSW (200°)9.2 mphPartly Cloudy
7:00 AM71.0 °F60.0 °F60 %30.11 inSSW (200°)9.2 mph
7:00 AM71.6 °F60.8 °F69 %30.09 in6.2 miSSW (200°)9.2 mphPartly Cloudy
7:30 AM73.4 °F59.0 °F61 %30.09 in6.2 miSouth (190°)10.4 mphPartly Cloudy
8:00 AM75.2 °F59.0 °F57 %30.09 in6.2 miSouth (170°)11.5 mphPartly Cloudy
8:30 AM77.0 °F59.0 °F54 %30.09 in6.2 miSE (140°)12.7 mphPartly Cloudy
9:00 AM78.8 °F59.0 °F51 %30.09 in6.2 miSSE (160°)12.7 mph24.2 mphScattered Clouds
9:00 AM79.0 °F60.0 °F41 %30.11 in16.0 miSSE (160°)12.7 mphPartly Cloudy
9:30 AM78.8 °F60.8 °F54 %30.09 in6.2 miSSE (160°)11.5 mphScattered Clouds
10:00 AM78.0 °F60.0 °F44 %30.11 inSE (140°)11.5 mph
10:00 AM78.8 °F60.8 °F54 %30.09 in6.2 miSE (140°)11.5 mphMostly Cloudy
10:30 AM78.8 °F60.8 °F54 %30.09 in6.2 miSE (140°)10.4 mphScattered Clouds
11:00 AM78.8 °F60.8 °F54 %30.09 in6.2 miSE (130°)10.4 mphMostly Cloudy
11:30 AM78.8 °F59.0 °F51 %30.06 in6.2 miSE (140°)13.8 mphMostly Cloudy
12:00 PM80.0 °F61.0 °F42 %30.08 in16.0 miSE (130°)12.7 mphMostly Cloudy
12:00 PM80.6 °F60.8 °F51 %30.06 in6.2 miSE (130°)12.7 mph24.2 mphMostly Cloudy
12:30 PM78.8 °F60.8 °F54 %30.06 in6.2 miSE (140°)12.7 mphMostly Cloudy
1:00 PM79.0 °F60.0 °F43 %30.07 inSE (140°)13.8 mph
1:00 PM78.8 °F60.8 °F54 %30.06 in6.2 miSE (140°)13.8 mphMostly Cloudy
1:30 PM78.8 °F60.8 °F54 %30.04 in6.2 miSE (140°)12.7 mphMostly Cloudy
2:00 PM80.6 °F60.8 °F51 %30.04 in6.2 miSE (130°)10.4 mphMostly Cloudy
2:30 PM78.8 °F59.0 °F51 %30.04 in6.2 miSE (130°)12.7 mphMostly Cloudy
3:00 PM76.0 °F62.0 °F54 %30.05 in16.0 miSouth (170°)12.7 mphMostly Cloudy
3:00 PM77.0 °F62.6 °F61 %30.04 in6.2 miSouth (170°)12.7 mphMostly Cloudy
3:30 PM73.4 °F64.4 °F73 %30.04 in6.2 miSouth (170°)10.4 mphMostly Cloudy
4:00 PM77.0 °F62.6 °F61 %30.04 in6.2 miSouth (180°)9.2 mphMostly Cloudy
4:00 PM77.0 °F62.0 °F51 %30.05 inSouth (180°)9.2 mph
4:30 PM77.0 °F59.0 °F54 %30.04 in6.2 miSE (130°)13.8 mphMostly Cloudy
5:00 PM75.2 °F59.0 °F57 %30.04 in6.2 miSE (140°)11.5 mphMostly Cloudy
5:30 PM71.6 °F64.4 °F78 %30.06 in6.2 miESE (120°)17.3 mphRainLight Rain Showers
6:00 PM71.0 °F65.0 °F75 %30.08 in2.0 miSE (130°)12.7 mphRainHeavy Rain Showers
6:00 PM71.6 °F64.4 °F78 %30.06 in1.9 miSE (130°)12.7 mphRainRain Showers
6:17 PM69.0 °F65.0 °F83 %30.09 in5.0 miSE (140°)9.2 mphOvercast
6:30 PM69.8 °F66.2 °F88 %30.06 in3.7 miSSE (160°)8.1 mphRainLight Rain Showers
7:00 PM69.0 °F66.0 °F86 %30.10 inSouth (190°)8.1 mph
7:00 PM69.8 °F66.2 °F88 %30.09 in6.2 miSouth (190°)8.1 mphMostly Cloudy
7:30 PM69.8 °F64.4 °F83 %30.09 in6.2 miSouth (170°)8.1 mphMostly Cloudy
8:00 PM69.8 °F64.4 °F83 %30.09 in6.2 miSouth (170°)10.4 mphMostly Cloudy
8:30 PM69.8 °F64.4 °F83 %30.09 in5.6 miSSE (150°)6.9 mphRainLight Rain Showers
9:00 PM69.0 °F65.0 °F82 %30.12 in6.0 miSSW (200°)8.1 mphMostly Cloudy
9:00 PM69.8 °F64.4 °F83 %30.09 in6.2 miSouth (190°)8.1 mphMostly Cloudy
9:30 PM69.8 °F64.4 °F83 %30.09 in6.2 miSouth (190°)6.9 mphMostly Cloudy
10:00 PM69.8 °F62.6 °F78 %30.09 in6.2 miSouth (180°)8.1 mphMostly Cloudy
10:00 PM69.0 °F63.0 °F76 %30.12 inSouth (180°)8.1 mph
10:17 PM68.0 °F64.4 °F88 %30.09 in1.9 miSSE (160°)9.2 mphRainRain Showers
10:30 PM66.2 °F64.4 °F94 %30.09 in3.7 miSouth (170°)9.2 mphRainLight Rain Showers
10:45 PM66.2 °F64.4 °F94 %30.09 in6.2 miSSW (200°)4.6 mphMostly Cloudy
11:00 PM68.0 °F64.4 °F88 %30.09 in6.2 miSouth (180°)5.8 mphMostly Cloudy
11:21 PM68.0 °F64.4 °F88 %30.09 in2.5 miSE (140°)6.9 mphRainLight Rain Showers
11:30 PM66.2 °F64.4 °F94 %30.09 in3.1 miSSE (150°)10.4 mphRainLight Rain Showers
Hourly data recorded from YBBN, located miles away from Belmont, Queensland







STORIES FROM OUR PARTNERS